www.pogodaiklimat.ru

Погода и климат >> Архив погоды >> Малайзия >> Ипох


ПОГОДА в Ипохе

  • Прогноз погоды в Ипохе
  • Монитор погоды в Ипохе

АРХИВ ПОГОДЫ в Ипохе

Время (UTC), дата Ветер
(напр.,м/с)
 
Видим.   Явления Облачность Т
(С)
Тd
(С)
f
(%)
Тe
(С)
Тes
(С)
Комфортность P
(гПа)
Po
(гПа)
Тmin
(С)
Tmax
(С)
R
(мм)
R24
(мм)
S
(см)
18 14.07 СВ 3 9000 м мгла 9/1 900 м
[Sc Ac trans Ci sp]
+25.7 +22.6 83 +34 +34 очень
душно
1010.8 1006.1
00 15.07 СВ 2 9000 м мгла 9/3 900 м
[Sc Ac trans Ci sp]
+24.9 +22.6 87 +33 +33 очень
душно
1010.1 1005.4 +24.2
06 15.07 С 3 12 км мгла 9/4 600 м
[Cu med, cong Ac trans Ci sp]
+33.7 +23.0 54 +44 +50 опасность
перегрева
1008.3 1003.6
12 15.07 штиль 0 9000 м гроза без осадков 9/4 500 м
[Cb cap Ac trans Ci sp]
+26.2 +23.4 85 +36 +36 очень
душно
1007.9 1003.2 +34.3 0.0
18 15.07 В 1 9000 м мгла 9/3 900 м
[Sc Ac trans Ci sp]
+24.9 +23.3 91 +33 +33 очень
душно
1009.0 1004.3
00 16.07 штиль 0 9000 м мгла 9/3 500 м
[Cb cap Ac trans Ci sp]
+25.2 +23.3 89 +34 +34 очень
душно
1009.3 1004.6 +24.7
06 16.07 Ю 5 11 км осадки на расстоянии 9/4 500 м
[Cb cap Ac trans Ci sp]
+29.1 +23.1 70 +39 +42 очень
душно
1009.6 1004.9 0.0
12 16.07 СВ 2 9000 м мгла 9/3 900 м
[Sc Ac trans Ci sp]
+25.4 +23.0 87 +34 +34 очень
душно
1008.5 1003.8 +30.7
18 16.07 СВ 2 9000 м мгла 9/3 900 м
[Sc Ac trans Ci sp]
+24.1 +22.5 91 +32 +32 очень
душно
1009.9 1005.2
00 17.07 СВ 3 9000 м мгла 9/3 900 м
[Sc Ac trans Ci sp]
+23.4 +22.2 93 +32 +32 очень
душно
1009.3 1004.6 +23.0 0.0
06 17.07 Ю 4 11 км мгла 9/4 600 м
[Cu hum Ac trans Ci sp]
+32.5 +23.4 59 +43 +48 опасность
перегрева
1006.8 1002.1
12 17.07 Ю 1 9000 м мгла 9/3 900 м
[Sc Ac trans Ci sp]
+28.5 +24.2 78 +40 +40 очень
душно
1006.5 1001.8 +34.1
18 17.07 СВ 3 9000 м мгла 9/3 900 м
[Sc Ac trans Ci sp]
+26.2 +23.7 86 +36 +36 очень
душно
1008.0 1003.3
00 18.07 С 2 8000 м мгла 9/3 900 м
[Sc Ac trans Cs]
+25.2 +22.9 87 +33 +34 очень
душно
1007.4 1002.7 +23.4
06 18.07 ЮЗ 3 10 км мгла 9/3 600 м
[Cu med, cong Ac trans Ci sp]
+31.7 +24.5 66 +44 +51 опасность
перегрева
1006.5 1001.8
12 18.07 штиль 0 9000 м мгла 9/3 900 м
[Sc diur, vesp Ac trans Ci sp]
+29.1 +25.1 79 +42 +42 опасность
перегрева
1005.7 1001.0 +32.9
18 18.07 В 1 8000 м мгла 8/1 900 м
[Sc Ac lent Cs]
+26.7 +24.2 86 +37 +37 очень
душно
1008.4 1003.7
00 19.07 штиль 0 6000 м дымка 9/4 300 м
[Sc Ac trans Ci sp]
+25.4 +24.5 95 +36 +36 очень
душно
1008.0 1003.3 +25.0
06 19.07 ЮЗ 4 11 км мгла 9/3 600 м
[Cu med, cong Ac trans Ci sp]
+32.5 +23.6 60 +44 +50 опасность
перегрева
1007.4 1002.7
12 19.07 ЮЗ 2 9000 м мгла 9/3 900 м
[Sc Ac trans Ci sp]
+29.7 +24.4 73 +42 +42 опасность
перегрева
1006.7 1002.0 +33.4
18 19.07 В 2 8000 м мгла 9/3 900 м
[Sc Ac trans Ci sp]
+27.0 +24.4 86 +38 +38 очень
душно
1008.4 1003.7
00 20.07 СВ 1 8000 м мгла 9/3 900 м
[Sc Ac trans Cs]
+26.0 +24.3 90 +36 +37 очень
душно
1008.8 1004.1 +25.5
06 20.07 Ю 2 11 км мгла 9/3 600 м
[Cu med, cong Ac trans Ci sp]
+32.6 +23.5 59 +44 +52 опасность
перегрева
1007.6 1002.9
12 20.07 штиль 0 10 км мгла 9/3 900 м
[Sc Ac trans Ci sp]
+28.8 +24.0 75 +40 +40 очень
душно
1007.1 1002.4 +33.7
18 20.07 В 2 9000 м мгла 9/3 900 м
[Sc Ac trans Ci sp]
+26.6 +23.7 84 +36 +36 очень
душно
1008.8 1004.1
00 21.07 СВ 2 10 км мгла 9/3 900 м
[Sc Ac trans Ci sp]
+26.4 +23.6 85 +36 +36 очень
душно
1009.4 1004.7 +25.8
06 21.07 Ю 2 10 км мгла 9/4 600 м
[Cu hum Ac trans Ci sp]
+33.3 +23.6 57 +44 +51 опасность
перегрева
1008.6 1003.9
12 21.07 Ю 2 9000 м мгла 8/3 600 м
[Cu med, cong Ac lent Ci sp]
+30.4 +24.6 71 +43 +43 опасность
перегрева
1007.8 1003.1 +34.3

 

Местоположение метеостанции Ипох (Малайзия): широта 4.57 долгота 101.10 высота над уровнем моря 39 м.

В архиве по умолчанию представлена погода в Ипохе за последнюю неделю. Архивные данные за месяц целиком и за предыдущие месяцы, начиная с января 2011 года, Вы можете получить, выбрав интересующий диапазон дат из раскрывающегося списка и нажав кнопку "Ввод!".


*Определитесь, кто Вы:
робот инопланетянин человек

Внимание! Время в таблицах - всемирное. Для получения местного времени необходимо прибавить поправку, которая равна 7 ч.

Смотрите также архив погоды в соседних городах и на ближайших метеорологических станциях:

Погода на Нагорье Кэмерон (Малайзия) (32 км)
Погода в Ситаване (Малайзия) (59 км)
Погода в Пенанге (Малайзия) (124 км)
Погода на Авиабазе Баттерворт (Малайзия) (128 км)
Погода в Куала-Лумпуре (Малайзия) (169 км)
Погода в Алор Стар (Малайзия) (197 км)
Погода в Куала-Лумпур аэропорту (Малайзия) (216 км)
Погода в Яла Агромете (Таиланд) (218 км)
Погода в Наратхивате (Таиланд) (220 км)
Погода в Кота-Бхару (Малайзия) (221 км)

Пояснения к столбцам:

Ветер - указаны скорость ветра в м/с - средняя за 10 мин, порывы в срок и между сроками (в фигурных скобках) и направление, откуда дует ветер: С - северный, СВ - северо-восточный, В - восточный, ЮВ - юго-восточный, Ю - южный, ЮЗ - юго-западный, З - западный, СЗ - северо-западный.
Видимость - горизонтальная дальность видимости в метрах или километрах. При видимости от 1 до 10 км при отсутствии осадков обычно наблюдается дымка, при ухудшении видимости до 1 км и менее - туман. В сухую погоду видимость может ухудшаться дымом, пылью или мглою.
Явления - указаны атмосферные явления, наблюдавшиеся в срок или в последний час перед сроком; фигурными скобками обозначены явления, наблюдавшиеся между сроками (за 1-3 часа до срока); квадратными скобками обозначены град или гололедные отложения с указанием их диаметра в мм.
Облачность - указаны через наклонную черту общая и нижняя облачность в баллах и высота нижней границы облаков в метрах; квадратными скобками обозначены формы облаков: Ci - перистые, Cs - перисто-слоистые, Cc - перисто-кучевые, Ac - высококучевые, As - высокослоистые, Sc - слоисто-кучевые, Ns - слоисто-дождевые, Cu - кучевые, Cb - кучево-дождевые. Подробнее классификацию облаков см. в Атласе облаков (PDF).
T - Температура воздуха - температура, измеренная на высоте 2 м над землей.
Td - Температура точки росы - температура, при понижении до которой содержащийся в воздухе водяной пар достигнет насыщения.
f - Относительная влажность воздуха - влажноcть воздуха, измеренная на высоте 2 м над землей.
Te - Эффективная температура - температура, которую ощущает одетый по сезону человек в тени. Характеристика душности погоды. При расчете учитывается влияние влажности воздуха и скорости ветра на теплоощущения человека.
Tes - Эффективная температура на солнце - температура, которую ощущает человек, с поправкой на солнечный нагрев. Характеристика знойности погоды. Зависит от высоты солнца над горизонтом, облачности и скорости ветра. Ночью, в пасмурную погоду, а также при ветре 12 м/с и более поправка равна нулю.
P - Атмосферное давление - приведенное к уровню моря атмосферное давление.
Po - Атмосферное давление - измеренное на уровне метеостанции атмосферное давление.
Tmin - Минимальная температура - минимум температуры воздуха на высоте 2 м над землей.
Tmax - Максимальная температура - максимум температуры воздуха на высоте 2 м над землей.
R - Количество осадков - Количество выпавших осадков за период времени, мм. При наведении курсора мыши на число - период времени, за который выпало указанное количество осадков.
R24 - Количество осадков - Количество выпавших осадков за 24 часа, мм.
S - Снежный покров - Высота снежного покрова, см. При наведении курсора мыши на число - состояние снежного покрова и степень покрытия местности в баллах.